CZ-6A R/B, 68661

Orbit data source: Space-Track

CZ-6A R/B, 68661 is space debris in LEO originally from a launch on Wed, 08 Apr 2026 UTC launched from the Taiyaun Space Center, China (TSC). Debris objects in space refer to the collection of defunct objects orbiting the Earth. Examples of debris include non-operational satellites, rocket bodies, and fragments generated from explosions, collisions, or faulty payload assembly.

Loading next visibility...
Identifier
68661, 2026-076F
Orbit
LEO
Country
Flag of CNCN / PRC
Related business
Manufacturer
SAST
Mission
Spacecraft
Bus & Motor
CZ-6A STAGE 2, YF-115
Mass
~6,000 kg wet, ~6,000 kg dry
Launch date (UTC)
2026-04-08 (2 months ago)
Launch vehicle
Unknown
Launch site
Taiyaun Space Center, China (TSC)
Object type
Payload
Rocket body
Debris
Shape & HBR
Unknown shape, 8.0 m
Radar Cross Section
RCS unknown

Expand to show TLE details & history
Last TLE update: 10 hours ago

TLE from 10 hours ago
0 CZ-6A R/B
1 68661U 26076F   26145.58152981 -.00000094  00000-0 -61024-4 0  9997
2 68661  86.5100  50.2223 0104231 325.4692  33.9747 14.09396696  6591
Epoch: 2026-05-25T13:57Z
TLE epoch observation values (Epoch: 2026-05-25T13:57:24.175Z)
Latitude
-0.0001°
Longitude
-42.2957°
Altitude
802.114 km
Speed
7.484 km/s
True Right ascension
03h 20m 53s
True Declination
0° 00' 00"
Sunlit
Object was in daylight at epoch
Visualization orbit readout
Latitude
Unknown
Longitude
Unknown
Altitude
Unknown
Speed
Unknown
Apparent Right ascension
Unknown
Apparent Declination
Unknown
Sunlit
N/A
Visualization observer readout
Local Sidereal Time
09:12:51
Azimuth
Unknown
Elevation
Unknown
Doppler factor
Unknown
Orbital elements
Apogee altitude
933.861 km
Perigee altitude
783.006 km
Semi-major axis
7,236.571 km
Eccentricity
0.01042
Inclination
86.51°
RAAN
50.2223°
Arg. of periapsis
325.4692°
True anomaly
34.64943°
Mean anomaly
33.9747°
Eccentric anomaly
34.31134°
Mean motion
3.52569 °/min
Orbital period
102.11 mins
BSTAR
-0.000061024
Loading maneuver chart data...
Computing Atmospheric mass density...
Loading historical data...
Loading historical data...
Loading historical data...
Loading historical data...
Loading historical data...
Loading historical data...
Loading historical data...

Documentation

Showing up to 5 results
|